RYR6PV LIBD-EPKT

Flight info

Callsign RYR6PV
Flight time 1h 49m
Altitude 38000
Route BANAV DCT AIOSA DCT ORAKA DCT VELIT DCT VEBAL/N0439F370 DCT LALES DCT OGDAS DCT BAVOK
Aircraft B738/M-SDE3FGILRWY/SB1

Departure

Time 2026-04-23 15:48
Airport Bari Karol Wojtyła International Airport (LIBD)

Arrival

Time 2026-04-23 17:37
Airport Katowice Wojciech Korfanty International Airport (EPKT)
Time Latitude Longitude Altitude Speed Heading
2026-04-23 15:28 41.13656 16.76315 149 ft 0 kts 24°
2026-04-23 15:41 41.13649 16.76310 149 ft 2 kts 24°
2026-04-23 15:41 41.13635 16.76302 150 ft 2 kts 25°
2026-04-23 15:41 41.13621 16.76294 150 ft 2 kts 24°
2026-04-23 15:42 41.13607 16.76286 150 ft 2 kts 25°
2026-04-23 15:42 41.13593 16.76278 150 ft 2 kts 26°
2026-04-23 15:42 41.13582 16.76265 151 ft 2 kts 55°
2026-04-23 15:42 41.13578 16.76254 151 ft 1 kts 69°
2026-04-23 15:43 41.13576 16.76247 151 ft 0 kts 70°
2026-04-23 15:45 41.13582 16.76270 151 ft 6 kts 67°
2026-04-23 15:45 41.13612 16.76367 149 ft 16 kts 70°
2026-04-23 15:45 41.13663 16.76517 145 ft 19 kts 43°
2026-04-23 15:45 41.13773 16.76551 144 ft 12 kts 356°
2026-04-23 15:46 41.13826 16.76625 142 ft 14 kts 66°
2026-04-23 15:46 41.13867 16.76770 138 ft 19 kts 69°
2026-04-23 15:46 41.13916 16.76943 134 ft 19 kts 70°
2026-04-23 15:46 41.13969 16.77136 129 ft 25 kts 69°
2026-04-23 15:47 41.14018 16.77306 124 ft 19 kts 70°
2026-04-23 15:47 41.14109 16.77406 122 ft 14 kts 15°
2026-04-23 15:47 41.14201 16.77403 121 ft 13 kts 321°
2026-04-23 15:47 41.14200 16.77282 123 ft 15 kts 251°
2026-04-23 15:48 41.14091 16.76902 132 ft 79 kts 249°
2026-04-23 15:48 41.13818 16.75942 154 ft 139 kts 250°
2026-04-23 15:48 41.13422 16.74557 351 ft 172 kts 250°
2026-04-23 15:48 41.13012 16.73146 1145 ft 167 kts 255°
2026-04-23 15:49 41.12580 16.71674 1770 ft 174 kts 258°
2026-04-23 15:49 41.12174 16.70121 2181 ft 186 kts 259°
2026-04-23 15:49 41.11751 16.68489 2729 ft 190 kts 257°
2026-04-23 15:49 41.11293 16.66761 2965 ft 214 kts 257°
2026-04-23 15:50 41.10758 16.64851 3390 ft 228 kts 255°
2026-04-23 15:50 41.10181 16.62874 4062 ft 232 kts 255°
2026-04-23 15:50 41.09601 16.60869 4737 ft 236 kts 254°
2026-04-23 15:50 41.09026 16.58810 5353 ft 240 kts 258°
2026-04-23 15:51 41.08877 16.56677 5968 ft 234 kts 286°
2026-04-23 15:51 41.09468 16.54752 6625 ft 227 kts 309°
2026-04-23 15:51 41.10466 16.53169 7294 ft 225 kts 321°
2026-04-23 15:51 41.11700 16.51918 7974 ft 221 kts 341°
2026-04-23 15:52 41.13162 16.51438 8621 ft 219 kts
2026-04-23 15:52 41.14661 16.51599 9313 ft 219 kts 13°
2026-04-23 15:52 41.16094 16.52210 9990 ft 219 kts 30°
2026-04-23 15:52 41.17305 16.53446 10690 ft 221 kts 42°
2026-04-23 15:53 41.18427 16.54821 11420 ft 222 kts 43°
2026-04-23 15:53 41.19585 16.56198 12110 ft 225 kts 41°
2026-04-23 15:53 41.20772 16.57560 12781 ft 229 kts 41°
2026-04-23 15:53 41.21977 16.58934 13480 ft 232 kts 42°
2026-04-23 15:54 41.23148 16.60371 14204 ft 233 kts 50°
2026-04-23 15:54 41.23979 16.62209 14834 ft 240 kts 71°
2026-04-23 15:54 41.24258 16.64442 15328 ft 254 kts 82°
2026-04-23 15:54 41.24394 16.66824 15770 ft 267 kts 83°
2026-04-23 15:55 41.24565 16.69347 16228 ft 280 kts 80°
2026-04-23 15:55 41.24789 16.71937 16718 ft 290 kts 80°
2026-04-23 15:55 41.25048 16.74610 17379 ft 294 kts 78°
2026-04-23 15:55 41.25521 16.77230 18134 ft 292 kts 66°
2026-04-23 15:56 41.26578 16.79523 18857 ft 293 kts 48°
2026-04-23 15:56 41.28119 16.81249 19555 ft 296 kts 36°
2026-04-23 15:56 41.29933 16.82596 20224 ft 301 kts 27°
2026-04-23 15:56 41.31874 16.83627 20825 ft 306 kts 23°
2026-04-23 15:57 41.33886 16.84535 21501 ft 307 kts 22°
2026-04-23 15:57 41.35921 16.85424 22131 ft 309 kts 23°
2026-04-23 15:57 41.37946 16.86330 22694 ft 312 kts 24°
2026-04-23 15:57 41.40010 16.87288 23254 ft 314 kts 24°
2026-04-23 15:58 41.42075 16.88273 23816 ft 316 kts 25°
2026-04-23 15:58 41.44126 16.89250 24422 ft 317 kts 25°
2026-04-23 15:58 41.46221 16.90254 24872 ft 322 kts 25°
2026-04-23 15:58 41.48324 16.91267 25395 ft 324 kts 25°
2026-04-23 15:59 41.50474 16.92304 25865 ft 328 kts 26°
2026-04-23 15:59 41.52611 16.93334 26394 ft 329 kts 25°
2026-04-23 15:59 41.54784 16.94315 26774 ft 336 kts 23°
2026-04-23 15:59 41.57048 16.95198 27228 ft 339 kts 21°
2026-04-23 16:00 41.59326 16.96016 27744 ft 340 kts 21°
2026-04-23 16:00 41.61606 16.96826 28093 ft 345 kts 21°
2026-04-23 16:00 41.63935 16.97667 28526 ft 347 kts 21°
2026-04-23 16:00 41.66230 16.98524 28989 ft 347 kts 22°
2026-04-23 16:01 41.68582 16.99419 29351 ft 351 kts 22°
2026-04-23 16:01 41.70886 17.00435 29744 ft 350 kts 27°
2026-04-23 16:01 41.73050 17.01879 30098 ft 348 kts 36°
2026-04-23 16:01 41.75049 17.03744 30569 ft 345 kts 41°
2026-04-23 16:02 41.76886 17.05777 30800 ft 350 kts 44°
2026-04-23 16:02 41.78730 17.07966 31239 ft 349 kts 44°
2026-04-23 16:02 41.80555 17.10158 31430 ft 355 kts 44°
2026-04-23 16:02 41.82420 17.12374 31852 ft 355 kts 44°
2026-04-23 16:03 41.84282 17.14576 32195 ft 357 kts 44°
2026-04-23 16:03 41.86127 17.16762 32531 ft 358 kts 43°
2026-04-23 16:03 41.88012 17.18978 32834 ft 361 kts 43°
2026-04-23 16:03 41.89999 17.21044 33181 ft 364 kts 37°
2026-04-23 16:04 41.92209 17.22786 33421 ft 371 kts 30°
2026-04-23 16:04 41.94593 17.24113 33747 ft 376 kts 23°
2026-04-23 16:04 41.97119 17.25013 34006 ft 383 kts 15°
2026-04-23 16:04 41.99789 17.25464 34334 ft 389 kts
2026-04-23 16:05 42.02521 17.25441 34625 ft 395 kts
2026-04-23 16:05 42.05274 17.25024 34778 ft 402 kts 357°
2026-04-23 16:05 42.08039 17.24456 34989 ft 404 kts 357°
2026-04-23 16:05 42.10834 17.23907 35222 ft 405 kts 358°
2026-04-23 16:06 42.13604 17.23450 35393 ft 407 kts 359°
2026-04-23 16:06 42.16441 17.23079 35609 ft 407 kts 359°
2026-04-23 16:06 42.19276 17.22778 35749 ft 410 kts
2026-04-23 16:06 42.22081 17.22522 35933 ft 410 kts
2026-04-23 16:07 42.24955 17.22280 36100 ft 413 kts
2026-04-23 16:07 42.27795 17.22050 36376 ft 413 kts
2026-04-23 16:07 42.30691 17.21818 36698 ft 413 kts
2026-04-23 16:07 42.33517 17.21594 37037 ft 412 kts
2026-04-23 16:08 42.36363 17.21365 37385 ft 410 kts
2026-04-23 16:08 42.39209 17.21138 37688 ft 410 kts
2026-04-23 16:08 42.42084 17.20911 37990 ft 410 kts
2026-04-23 16:09 42.47821 17.20463 38075 ft 414 kts 360°
2026-04-23 16:09 42.53550 17.20050 38080 ft 409 kts
2026-04-23 16:10 42.59161 17.20335 38072 ft 403 kts
2026-04-23 16:10 42.64736 17.20943 38074 ft 404 kts
2026-04-23 16:11 42.70353 17.21517 38080 ft 404 kts
2026-04-23 16:11 42.75945 17.22048 38075 ft 402 kts
2026-04-23 16:12 42.81504 17.22571 38087 ft 403 kts
2026-04-23 16:12 42.87109 17.23107 38081 ft 401 kts
2026-04-23 16:13 42.92627 17.23630 38063 ft 398 kts
2026-04-23 16:13 43.00964 17.24417 38071 ft 400 kts
2026-04-23 16:14 43.06522 17.24940 38071 ft 401 kts
2026-04-23 16:14 43.12088 17.25463 38078 ft 401 kts
2026-04-23 16:15 43.17643 17.25989 38080 ft 399 kts
2026-04-23 16:15 43.23237 17.26516 38082 ft 401 kts
2026-04-23 16:16 43.28817 17.27044 38086 ft 400 kts
2026-04-23 16:16 43.34367 17.27577 38091 ft 400 kts
2026-04-23 16:17 43.39939 17.27892 38099 ft 402 kts
2026-04-23 16:17 43.45530 17.27853 38105 ft 401 kts
2026-04-23 16:18 43.51087 17.27811 38103 ft 402 kts
2026-04-23 16:18 43.56675 17.27821 38113 ft 402 kts
2026-04-23 16:19 43.62260 17.27859 38111 ft 401 kts
2026-04-23 16:19 43.67827 17.27906 38102 ft 402 kts
2026-04-23 16:20 43.73412 17.27947 38109 ft 402 kts
2026-04-23 16:20 43.79027 17.27980 38103 ft 401 kts
2026-04-23 16:21 43.84592 17.28017 38103 ft 401 kts
2026-04-23 16:21 43.90162 17.28050 38112 ft 401 kts
2026-04-23 16:22 43.95719 17.28092 38106 ft 401 kts
2026-04-23 16:22 44.01306 17.28135 38098 ft 401 kts
2026-04-23 16:23 44.06908 17.28176 38104 ft 401 kts
2026-04-23 16:23 44.12477 17.28211 38100 ft 402 kts
2026-04-23 16:24 44.18047 17.28245 38098 ft 402 kts
2026-04-23 16:24 44.23629 17.28283 38093 ft 402 kts
2026-04-23 16:25 44.29225 17.28323 38092 ft 401 kts
2026-04-23 16:25 44.34789 17.28366 38095 ft 402 kts
2026-04-23 16:26 44.40404 17.28416 38099 ft 402 kts
2026-04-23 16:26 44.46003 17.28468 38100 ft 402 kts
2026-04-23 16:27 44.51597 17.28512 38099 ft 403 kts
2026-04-23 16:27 44.57174 17.28536 38107 ft 402 kts
2026-04-23 16:28 44.62783 17.28571 38117 ft 402 kts
2026-04-23 16:28 44.68387 17.28611 38118 ft 403 kts
2026-04-23 16:29 44.73962 17.28652 38121 ft 404 kts
2026-04-23 16:29 44.79584 17.28692 38116 ft 404 kts
2026-04-23 16:30 44.85194 17.28735 38115 ft 404 kts
2026-04-23 16:30 44.88000 17.28757 38276 ft 404 kts
2026-04-23 16:30 44.90810 17.28779 38132 ft 405 kts
2026-04-23 16:31 44.96411 17.28824 38112 ft 400 kts
2026-04-23 16:31 45.02003 17.28873 38114 ft 404 kts
2026-04-23 16:32 45.07605 17.28915 38113 ft 404 kts
2026-04-23 16:32 45.13227 17.28961 38109 ft 403 kts
2026-04-23 16:33 45.18827 17.29000 38114 ft 404 kts
2026-04-23 16:33 45.24435 17.29027 37995 ft 402 kts
2026-04-23 16:34 45.30027 17.29072 38107 ft 406 kts
2026-04-23 16:34 45.35663 17.29114 38109 ft 406 kts
2026-04-23 16:35 45.41307 17.29154 38111 ft 403 kts
2026-04-23 16:35 45.46887 17.29197 38109 ft 405 kts
2026-04-23 16:36 45.52545 17.29247 38111 ft 405 kts
2026-04-23 16:36 45.58141 17.29293 38106 ft 406 kts
2026-04-23 16:37 45.63766 17.29336 38104 ft 405 kts
2026-04-23 16:37 45.69405 17.29376 38102 ft 405 kts
2026-04-23 16:38 45.75025 17.29426 38108 ft 406 kts
2026-04-23 16:38 45.80647 17.29473 38110 ft 405 kts
2026-04-23 16:39 45.86316 17.29525 38095 ft 406 kts
2026-04-23 16:39 45.91951 17.29558 38106 ft 406 kts
2026-04-23 16:40 45.97562 17.29594 38102 ft 405 kts
2026-04-23 16:40 46.03174 17.29958 38102 ft 405 kts
2026-04-23 16:41 46.08780 17.30794 38088 ft 404 kts
2026-04-23 16:41 46.14364 17.31634 38096 ft 404 kts
2026-04-23 16:42 46.19958 17.32427 38097 ft 405 kts
2026-04-23 16:42 46.25548 17.33204 38089 ft 403 kts
2026-04-23 16:43 46.31139 17.33961 38091 ft 403 kts
2026-04-23 16:43 46.36691 17.34732 38087 ft 404 kts
2026-04-23 16:44 46.42283 17.35509 38085 ft 404 kts
2026-04-23 16:44 46.47858 17.36293 38081 ft 403 kts
2026-04-23 16:45 46.53417 17.37061 38084 ft 403 kts
2026-04-23 16:45 46.58994 17.37830 38081 ft 403 kts
2026-04-23 16:46 46.64564 17.38609 38079 ft 403 kts
2026-04-23 16:46 46.70128 17.39391 38076 ft 402 kts
2026-04-23 16:47 46.75729 17.40173 38068 ft 402 kts
2026-04-23 16:47 46.81268 17.40951 38069 ft 400 kts
2026-04-23 16:48 46.86835 17.41729 38065 ft 401 kts
2026-04-23 16:48 46.92383 17.42503 38065 ft 402 kts
2026-04-23 16:49 46.97957 17.43277 38264 ft 403 kts
2026-04-23 16:49 47.00733 17.43670 38036 ft 402 kts
2026-04-23 16:49 47.03534 17.44072 38065 ft 400 kts
2026-04-23 16:50 47.09067 17.44869 38069 ft 399 kts
2026-04-23 16:50 47.14653 17.45655 38064 ft 400 kts
2026-04-23 16:51 47.20177 17.46440 38071 ft 399 kts
2026-04-23 16:51 47.25690 17.47224 38073 ft 399 kts
2026-04-23 16:52 47.31199 17.48012 38074 ft 397 kts
2026-04-23 16:52 47.36687 17.48809 38071 ft 396 kts
2026-04-23 16:53 47.42193 17.49597 38061 ft 395 kts
2026-04-23 16:53 47.47696 17.50385 38063 ft 396 kts
2026-04-23 16:54 47.53207 17.51172 38071 ft 394 kts
2026-04-23 16:54 47.58626 17.51958 38062 ft 392 kts
2026-04-23 16:55 47.64076 17.52736 38069 ft 393 kts
2026-04-23 16:55 47.69473 17.53505 38056 ft 390 kts
2026-04-23 16:56 47.74880 17.54285 38063 ft 391 kts
2026-04-23 16:56 47.80297 17.55078 38060 ft 389 kts
2026-04-23 16:57 47.85666 17.55871 38063 ft 388 kts
2026-04-23 16:57 47.91042 17.56657 38072 ft 390 kts
2026-04-23 16:58 47.96419 17.57440 38062 ft 387 kts
2026-04-23 16:58 48.01781 17.58237 38059 ft 387 kts
2026-04-23 16:59 48.07151 17.58982 38058 ft 386 kts
2026-04-23 16:59 48.12516 17.59784 38062 ft 385 kts
2026-04-23 17:00 48.17849 17.60597 38059 ft 386 kts
2026-04-23 17:00 48.23158 17.61393 38062 ft 385 kts
2026-04-23 17:01 48.28484 17.62185 38060 ft 383 kts
2026-04-23 17:01 48.33794 17.62961 38062 ft 383 kts
2026-04-23 17:02 48.39108 17.63760 38060 ft 383 kts
2026-04-23 17:02 48.44400 17.64551 38062 ft 382 kts
2026-04-23 17:03 48.49736 17.65356 38062 ft 381 kts
2026-04-23 17:03 48.55036 17.66159 38066 ft 379 kts
2026-04-23 17:04 48.60286 17.66938 38067 ft 377 kts
2026-04-23 17:04 48.65501 17.67711 38067 ft 380 kts
2026-04-23 17:05 48.70769 17.68504 38077 ft 377 kts
2026-04-23 17:05 48.75933 17.69298 38075 ft 376 kts
2026-04-23 17:06 48.81139 17.70087 38068 ft 377 kts
2026-04-23 17:06 48.86370 17.70875 38070 ft 375 kts 10°
2026-04-23 17:07 48.91491 17.72245 38078 ft 374 kts 15°
2026-04-23 17:07 48.96555 17.73975 38075 ft 372 kts 14°
2026-04-23 17:08 49.01601 17.75628 37845 ft 364 kts 14°
2026-04-23 17:08 49.04071 17.76409 37570 ft 356 kts 14°
2026-04-23 17:08 49.06496 17.77175 37144 ft 355 kts 14°
2026-04-23 17:09 49.08908 17.77944 36638 ft 355 kts 14°
2026-04-23 17:09 49.11329 17.78721 36161 ft 355 kts 15°
2026-04-23 17:09 49.13790 17.79504 35784 ft 356 kts 15°
2026-04-23 17:09 49.16209 17.80272 35324 ft 361 kts 15°
2026-04-23 17:10 49.18676 17.81061 34846 ft 359 kts 15°
2026-04-23 17:10 49.21119 17.81842 34359 ft 357 kts 15°
2026-04-23 17:10 49.23523 17.82604 33879 ft 354 kts 14°
2026-04-23 17:10 49.25896 17.83351 33417 ft 350 kts 14°
2026-04-23 17:11 49.28264 17.84094 32964 ft 346 kts 14°
2026-04-23 17:11 49.30617 17.84839 32507 ft 342 kts 14°
2026-04-23 17:11 49.32938 17.85583 32060 ft 339 kts 14°
2026-04-23 17:11 49.35219 17.86321 31620 ft 335 kts 14°
2026-04-23 17:12 49.37486 17.87056 31189 ft 331 kts 14°
2026-04-23 17:12 49.39718 17.87779 30752 ft 328 kts 14°
2026-04-23 17:12 49.41953 17.88499 30318 ft 325 kts 14°
2026-04-23 17:12 49.44141 17.89199 29878 ft 321 kts 15°
2026-04-23 17:13 49.46323 17.89899 29457 ft 319 kts 14°
2026-04-23 17:13 49.48492 17.90601 29046 ft 322 kts 14°
2026-04-23 17:13 49.50685 17.91312 28613 ft 327 kts 14°
2026-04-23 17:13 49.52915 17.92031 28173 ft 325 kts 13°
2026-04-23 17:14 49.55117 17.92739 27753 ft 320 kts 14°
2026-04-23 17:14 49.57280 17.93433 27327 ft 316 kts 14°
2026-04-23 17:14 49.59404 17.94118 26908 ft 312 kts 14°
2026-04-23 17:14 49.61533 17.94807 26485 ft 309 kts 13°
2026-04-23 17:15 49.63610 17.95481 26081 ft 305 kts 14°
2026-04-23 17:15 49.65677 17.96158 25685 ft 307 kts 14°
2026-04-23 17:15 49.67789 17.96848 25269 ft 311 kts 14°
2026-04-23 17:15 49.69850 17.97665 24844 ft 311 kts 19°
2026-04-23 17:16 49.71860 17.98825 24427 ft 306 kts 24°
2026-04-23 17:16 49.73794 18.00191 24018 ft 302 kts 25°
2026-04-23 17:16 49.75656 18.01570 23621 ft 298 kts 25°
2026-04-23 17:16 49.77507 18.02925 23230 ft 294 kts 24°
2026-04-23 17:17 49.79353 18.04257 22840 ft 293 kts 25°
2026-04-23 17:17 49.81203 18.05592 22449 ft 297 kts 25°
2026-04-23 17:17 49.83069 18.06934 22054 ft 300 kts 25°
2026-04-23 17:17 49.84945 18.08288 21649 ft 296 kts 24°
2026-04-23 17:18 49.88618 18.10955 20873 ft 289 kts 24°
2026-04-23 17:18 49.90429 18.12271 20486 ft 286 kts 24°
2026-04-23 17:18 49.92231 18.13589 20104 ft 287 kts 24°
2026-04-23 17:19 49.94030 18.14903 19721 ft 290 kts 24°
2026-04-23 17:19 49.95868 18.16238 19334 ft 289 kts 23°
2026-04-23 17:19 49.97649 18.17531 18948 ft 285 kts 23°
2026-04-23 17:19 49.99374 18.18984 18562 ft 283 kts 31°
2026-04-23 17:20 50.00874 18.20985 18190 ft 284 kts 45°
2026-04-23 17:20 50.03226 18.26002 17438 ft 294 kts 51°
2026-04-23 17:21 50.05519 18.31239 16648 ft 289 kts 50°
2026-04-23 17:21 50.06643 18.33771 16269 ft 286 kts 50°
2026-04-23 17:21 50.08878 18.38800 15508 ft 279 kts 50°
2026-04-23 17:22 50.09965 18.41258 15141 ft 278 kts 49°
2026-04-23 17:22 50.12197 18.46291 14382 ft 284 kts 50°
2026-04-23 17:23 50.14497 18.51100 14069 ft 270 kts 44°
2026-04-23 17:23 50.15768 18.53345 14057 ft 276 kts 43°
2026-04-23 17:23 50.18286 18.57751 13476 ft 270 kts 43°
2026-04-23 17:24 50.19504 18.59950 13111 ft 269 kts 43°
2026-04-23 17:24 50.20725 18.62166 12758 ft 271 kts 44°
2026-04-23 17:24 50.23227 18.66612 12078 ft 269 kts 40°
2026-04-23 17:25 50.26071 18.70266 12055 ft 266 kts 33°
2026-04-23 17:25 50.27568 18.71994 12049 ft 269 kts 32°
2026-04-23 17:26 50.30514 18.75521 12050 ft 266 kts 34°
2026-04-23 17:26 50.33390 18.79033 11774 ft 257 kts 34°
2026-04-23 17:27 50.36253 18.82529 11085 ft 266 kts 34°
2026-04-23 17:27 50.37666 18.84390 10724 ft 266 kts 40°
2026-04-23 17:27 50.38757 18.86735 10368 ft 271 kts 62°
2026-04-23 17:27 50.39138 18.89647 10026 ft 279 kts 81°
2026-04-23 17:28 50.39103 18.92661 9844 ft 272 kts 86°
2026-04-23 17:28 50.39022 18.95611 9466 ft 277 kts 85°
2026-04-23 17:28 50.38971 18.98623 9099 ft 277 kts 84°
2026-04-23 17:28 50.38946 19.01614 8747 ft 275 kts 85°
2026-04-23 17:29 50.38929 19.04611 8393 ft 273 kts 84°
2026-04-23 17:29 50.38913 19.07537 8042 ft 271 kts 85°
2026-04-23 17:29 50.38879 19.13409 7298 ft 270 kts 85°
2026-04-23 17:30 50.38868 19.16351 6950 ft 268 kts 84°
2026-04-23 17:30 50.38838 19.22131 6265 ft 265 kts 84°
2026-04-23 17:30 50.38817 19.24980 5915 ft 263 kts 86°
2026-04-23 17:31 50.38799 19.27841 5581 ft 261 kts 84°
2026-04-23 17:31 50.38788 19.30702 5249 ft 259 kts 86°
2026-04-23 17:31 50.38858 19.33445 5078 ft 248 kts 77°
2026-04-23 17:31 50.39386 19.35859 4999 ft 224 kts 47°
2026-04-23 17:32 50.40533 19.37305 4976 ft 210 kts 21°
2026-04-23 17:32 50.41928 19.38047 4965 ft 211 kts
2026-04-23 17:32 50.43360 19.38206 4877 ft 202 kts 357°
2026-04-23 17:32 50.44742 19.38144 4734 ft 195 kts 352°
2026-04-23 17:33 50.46048 19.37571 4561 ft 198 kts 331°
2026-04-23 17:33 50.47052 19.36109 4367 ft 204 kts 306°
2026-04-23 17:33 50.47478 19.33931 3985 ft 217 kts 279°
2026-04-23 17:33 50.47511 19.31577 3733 ft 215 kts 275°
2026-04-23 17:34 50.47509 19.29293 3479 ft 206 kts 275°
2026-04-23 17:34 50.47517 19.27072 3186 ft 197 kts 275°
2026-04-23 17:34 50.47535 19.22999 2653 ft 176 kts 275°
2026-04-23 17:35 50.47536 19.21182 2410 ft 157 kts 276°
2026-04-23 17:35 50.47551 19.18127 2039 ft 134 kts 275°
2026-04-23 17:35 50.47535 19.16636 1878 ft 146 kts 273°
2026-04-23 17:36 50.47539 19.15093 1770 ft 140 kts 277°
2026-04-23 17:36 50.47591 19.13558 1496 ft 140 kts 276°
2026-04-23 17:36 50.47586 19.12005 1295 ft 142 kts 275°
2026-04-23 17:36 50.47595 19.10431 1080 ft 144 kts 276°
2026-04-23 17:37 50.47599 19.08938 995 ft 124 kts 272°
2026-04-23 17:37 50.47601 19.07967 990 ft 55 kts 270°
2026-04-23 17:37 50.47577 19.07126 988 ft 25 kts 250°
2026-04-23 17:38 50.47527 19.06958 988 ft 1 kts 239°
2026-04-23 17:38 50.47525 19.06952 988 ft 1 kts 239°
2026-04-23 17:38 50.47517 19.06933 987 ft 2 kts 239°
2026-04-23 17:38 50.47507 19.06906 987 ft 3 kts 240°
2026-04-23 17:39 50.47496 19.06874 987 ft 3 kts 240°
2026-04-23 17:39 50.47475 19.06818 987 ft 8 kts 241°
2026-04-23 17:39 50.47438 19.06711 987 ft 13 kts 241°
2026-04-23 17:39 50.47356 19.06623 987 ft 17 kts 180°
2026-04-23 17:40 50.47251 19.06644 988 ft 14 kts 134°
2026-04-23 17:40 50.47237 19.06808 989 ft 17 kts 90°
2026-04-23 17:40 50.47236 19.06952 990 ft 11 kts 90°
2026-04-23 17:40 50.47228 19.07039 990 ft 5 kts 145°
2026-04-23 17:41 50.47179 19.07047 990 ft 7 kts 181°
2026-04-23 17:41 50.47154 19.07046 991 ft 0 kts 180°